CZ-4 DEB

Satellite information

Favourite Embed

Satellite Type and Status

DEBRISIN ORBIT

Key statistics

Satellite CZ-4 DEB at a glance.

Uptime

9459

Days in orbit

Revolutions

≈ 14.7

Per day

Orbit

SSO

Sun Synchronous Orbit

Inclination

98.4

Latest

Satellite identification and parameters

Extended collection of information and parameters for CZ-4 DEB.

Object identification

Identified? True

Debris? True

Object name: CZ-4 DEB

International designator: 1999-057CM

Object number (NORAD): 26199

Object ID (CCSDS): 26199

Country: PEOPLES REPUBLIC OF CHINA (PRC)

Current information (Y/N): Y

RCS size: SMALL

Orbital parameters

Period: 98.173 minutes

Inclination: 98.3773 deg

SMA: 7049.456 km

Apoapsis: 717.921 km

Periapsis: 624.72 km

RAAN: 311.0762 deg

Eccentricy: 0.00661051

Argument of periapsis: 66.2491 deg

Mean anomaly: 324.4893 deg

Mean motion: 14.66794823 rev/day

Mean motion (dot): 0.00007393 rev/day2

B* drag term: 0.0012911529 1/REarth

Two-line elements (TLE)

Creation date: Sept. 5, 2025, 10:27 a.m.

Reference frame: TEME

Reference center: EARTH

Epoch: Sept. 5, 2025, 3:09 a.m. UTC

TLE line 0: 0 CZ-4 DEB

TLE line 1: 1 26199U 99057CM 25248.13167220 .00007393 00000-0 12912-2 0 9999

TLE line 2: 2 26199 98.3773 311.0762 0066105 66.2491 324.4893 14.66794823344231

Live tracking on map

Real-time ground track for satellite CZ-4 DEB.

In-orbit conjunctions

A list of the most updated potential collisions computed for object CZ-4 DEB.

Target Orbit TCA Probability of collision Miss distance Type
TITAN 3C TRANSTAGE DEB LEO 2024-09-29 06:59:39 0.0001101948 496.0 (m) DEBRIS
COSMOS 304 LEO 2024-06-01 20:10:48 0.0006923445 100.0 (m) PAYLOAD

Associated space launch

The CBERS (China Brazil Earth Resources Satellite) or ZY 1 (Zi Yuan) satellites are designed for global coverage and include cameras to make optical observations and a data collecting system to gather data on the environment. They are unique systems due to the use of on-board sensors which combine features that are especially designed to resolve the broad range of space and time scales involved in the monitoring and preservation of the ecosystem. They are operated jointly by the China Centre for Resources Satellite Data and Application (CRESDA) and the Brazilian INPE (Instituto Nacional de Pesquisas Espaciais, National Institute of Space Research).

CZ-4 DEB was lifted into orbit during the mission ‘Long March 4B | Zi Yuan 1-1’, on board a Long March 4B space rocket.

The launch took place on Oct. 14, 1999, 3:15 a.m. from Launch Complex 7.

For more information about the launch, click the button.

Launch to space Long March 4B | Zi Yuan 1-1
Long March 4B | Zi Yuan 1-1

Agency: N/A

Status: Launch Successful

Launch date: Oct. 14, 1999, 3:15 a.m. UTC

Rocket: Long March 4B

Launch pad: Launch Complex 7

Location: Taiyuan Satellite Launch Center, People's Republic of China

...

Latest news about this satellite

There are no fresh news available about this satellite. Check back as we update our databases every day.


Newsletter sign-up

Weekly statistics, charts and insights to help you stay on top of the space industry.